GEO-KOMPSAT-2A

Last updated on Tue Sep 16 2025 00:02:22 GMT+0000 (Coordinated Universal Time)

1 43823U 18100A 25258.56059883 -.00000360 00000+0 00000+0 0 9994 2 43823 0.0431 17.0173 0001593 111.5689 196.2555 1.00272044 24872
UTC large
Height (km)
Speed (km/s)
/
Latitude / Longitude
Inclination (degrees)
Orbital Period (minutes)
Azimuth
Elevation
Range (km)
Doppler Factor

Next 0 passes for location: London (51.5072 / 0.1276)

Sorry there are no passes over London.